User: anonymous   Login
Location: Caltech
(34.1382°N, 118.1253°W)
Time: 11:23:52
(UTC-08:00)
Language:

Oscar 16 - Orbit

View from above orbital plane
View from above orbital plane
View from above satellite
View from above satellite

Ground track
Ground track

The orbit data is extracted from the following two-line orbital elements,

1 20439U 90005D   14354.40989201  .00000177  00000-0  81538-4 0  1987
2 20439 098.5262 288.3898 0010142 334.4375 140.0087 14.32455985301140
Epoch (UTC): 20 December 2014 09:50:14
Eccentricity: 0.0010142
inclination: 98.5262°
perigee height: 776 km
apogee height: 791 km
right ascension of ascending node: 288.3898°
argument of perigee: 334.4375°
revolutions per day: 14.32455985
mean anomaly at epoch: 140.0087°
orbit number at epoch: 30114

The dashed part of the orbit path shows where the satellite is in the earth's shadow,  

DLR